| time (UTC) | temp F | wind direction | speed MPH | gust MPH | rain 1hr in | rain 24hr in | rain mn in | humidity % | barometer mb |
| 20260507075504 | 55 | 56 | 4.0 | 7.0 | 0.00 | 0.00 | 0.00 | 72 | 1017.8 |
| 20260507074500 | 55 | 34 | 2.0 | 4.0 | 0.00 | 0.00 | 0.00 | 71 | 1017.8 |
| 20260507073957 | 55 | 97 | 4.0 | 4.0 | 0.00 | 0.00 | 0.00 | 72 | 1017.8 |
| 20260507073454 | 55 | 90 | 2.0 | 7.0 | 0.00 | 0.00 | 0.00 | 69 | 1017.8 |
| 20260507072952 | 55 | 14 | 2.0 | 5.0 | 0.00 | 0.00 | 0.00 | 73 | 1017.8 |
| 20260507072449 | 55 | 107 | 2.0 | 3.0 | 0.00 | 0.00 | 0.00 | 74 | 1017.8 |
| 20260507071947 | 55 | 80 | 4.0 | 4.0 | 0.00 | 0.00 | 0.00 | 73 | 1017.8 |
| 20260507071445 | 55 | 71 | 2.0 | 4.0 | 0.00 | 0.00 | 0.00 | 74 | 1017.8 |
| 20260507070942 | 55 | 77 | 3.0 | 6.0 | 0.00 | 0.00 | 0.00 | 73 | 1017.8 |
| 20260507070440 | 55 | 73 | 2.0 | 5.0 | 0.00 | 0.00 | 0.00 | 74 | 1017.8 |
| 20260507065938 | 55 | 355 | 2.0 | 6.0 | 0.00 | 0.00 | 0.00 | 73 | 1017.8 |
| 20260507065435 | 55 | 23 | 3.0 | 5.0 | 0.00 | 0.00 | 0.00 | 71 | 1017.8 |
| 20260507064932 | 55 | 57 | 1.0 | 1.0 | 0.00 | 0.00 | 0.00 | 73 | 1017.4 |
| 20260507064430 | 55 | 353 | 6.0 | 6.0 | 0.00 | 0.00 | 0.00 | 73 | 1017.4 |
| 20260507063928 | 54 | 42 | 4.0 | 4.0 | 0.00 | 0.00 | 0.00 | 77 | 1017.4 |
| 20260507063425 | 54 | 59 | 1.0 | 1.0 | 0.00 | 0.00 | 0.00 | 81 | 1017.4 |
| 20260507062922 | 52 | 74 | 2.0 | 3.0 | 0.00 | 0.00 | 0.00 | 84 | 1017.4 |
| 20260507062420 | 52 | 87 | 1.0 | 2.0 | 0.00 | 0.00 | 0.00 | 86 | 1017.4 |
| 20260507061918 | 50 | 33 | 2.0 | 2.0 | 0.00 | 0.00 | 0.00 | 89 | 1017.4 |
| 20260507061416 | 50 | 78 | 1.0 | 1.0 | 0.00 | 0.00 | 0.00 | 90 | 1017.4 |
| 20260507060913 | 48 | 57 | 1.0 | 1.0 | 0.00 | 0.00 | 0.00 | 92 | 1017.4 |
| 20260507060411 | 48 | 14 | 1.0 | 1.0 | 0.00 | 0.00 | 0.00 | 94 | 1017.4 |
| 20260507055908 | 48 | 15 | 0.0 | 0.0 | 0.00 | 0.00 | 0.00 | 94 | 1017.4 |
| 20260507055406 | 46 | 24 | 0.0 | 0.0 | 0.00 | 0.00 | 0.00 | 94 | 1017.4 |
| 20260507054903 | 46 | 38 | 0.0 | 0.0 | 0.00 | 0.00 | 0.00 | 94 | 1017.4 |
| 20260507054401 | 46 | 64 | 1.0 | 1.0 | 0.00 | 0.00 | 0.00 | 95 | 1017.1 |
| 20260507053356 | 46 | 19 | 0.0 | 0.0 | 0.00 | 0.00 | 0.00 | 96 | 1017.1 |
| 20260507052352 | 45 | 11 | 0.0 | 0.0 | 0.00 | 0.00 | 0.00 | 96 | 1017.1 |
| 20260507051849 | 45 | 3 | 0.0 | 0.0 | 0.00 | 0.00 | 0.00 | 96 | 1017.1 |
| 20260507051346 | 45 | 16 | 0.0 | 0.0 | 0.00 | 0.00 | 0.00 | 96 | 1017.1 |
| 20260507050844 | 45 | 25 | 0.0 | 0.0 | 0.00 | 0.00 | 0.00 | 96 | 1017.1 |
| 20260507050342 | 45 | 28 | 0.0 | 0.0 | 0.00 | 0.00 | 0.00 | 96 | 1017.1 |
| 20260507045838 | 45 | 12 | 0.0 | 0.0 | 0.00 | 0.00 | 0.00 | 96 | 1017.1 |
| 20260507045336 | 43 | 27 | 0.0 | 0.0 | 0.00 | 0.00 | 0.00 | 96 | 1017.1 |
| 20260507044834 | 43 | 55 | 1.0 | 1.0 | 0.00 | 0.00 | 0.00 | 96 | 1016.7 |
| 20260507044332 | 43 | 9 | 0.0 | 0.0 | 0.00 | 0.00 | 0.00 | 97 | 1016.7 |
| 20260507043326 | 41 | 28 | 0.0 | 0.0 | 0.00 | 0.00 | 0.00 | 96 | 1016.7 |
| 20260507042825 | 43 | 61 | 0.0 | 0.0 | 0.00 | 0.00 | 0.00 | 96 | 1016.7 |
| 20260507042322 | 41 | 26 | 0.0 | 0.0 | 0.00 | 0.00 | 0.00 | 96 | 1016.7 |
| 20260507041819 | 43 | 30 | 0.0 | 0.0 | 0.00 | 0.00 | 0.00 | 96 | 1016.7 |
| 20260507041317 | 43 | 54 | 1.0 | 1.0 | 0.00 | 0.00 | 0.00 | 96 | 1016.7 |
| 20260507040815 | 45 | 10 | 0.0 | 0.0 | 0.00 | 0.00 | 0.00 | 96 | 1016.7 |
| 20260507040312 | 45 | 342 | 1.0 | 1.0 | 0.00 | 0.00 | 0.00 | 97 | 1016.7 |
| 20260507035809 | 45 | 329 | 1.0 | 1.0 | 0.00 | 0.00 | 0.00 | 97 | 1016.7 |
| 20260507035307 | 43 | 0 | 0.0 | 0.0 | 0.00 | 0.00 | 0.00 | 96 | 1016.7 |
| 20260507034804 | 43 | 23 | 0.0 | 0.0 | 0.00 | 0.00 | 0.00 | 96 | 1016.7 |
| 20260507034301 | 43 | 21 | 0.0 | 0.0 | 0.00 | 0.00 | 0.00 | 96 | 1016.7 |
| 20260507033257 | 43 | 4 | 0.0 | 0.0 | 0.00 | 0.00 | 0.00 | 96 | 1016.7 |
| 20260507032754 | 43 | 353 | 1.0 | 1.0 | 0.00 | 0.00 | 0.00 | 96 | 1016.7 |
| 20260507031750 | 43 | 276 | 0.0 | 1.0 | 0.00 | 0.00 | 0.00 | 95 | 1016.7 |
| 20260507031247 | 43 | 320 | 1.0 | 1.0 | 0.00 | 0.00 | 0.00 | 95 | 1016.7 |
| 20260507030745 | 43 | 345 | 1.0 | 1.0 | 0.00 | 0.00 | 0.00 | 95 | 1016.7 |
| 20260507025740 | 45 | 0 | 0.0 | 1.0 | 0.00 | 0.00 | 0.00 | 94 | 1016.7 |
| 20260507025238 | 45 | 0 | 0.0 | 0.0 | 0.00 | 0.00 | 0.00 | 94 | 1016.7 |
| 20260507024735 | 45 | 340 | 1.0 | 1.0 | 0.00 | 0.00 | 0.00 | 94 | 1016.7 |
| 20260507024233 | 45 | 330 | 1.0 | 1.0 | 0.00 | 0.00 | 0.00 | 94 | 1016.7 |
| 20260507023731 | 45 | 287 | 1.0 | 1.0 | 0.00 | 0.00 | 0.00 | 94 | 1016.7 |
| 20260507023229 | 45 | 300 | 1.0 | 1.0 | 0.00 | 0.00 | 0.00 | 93 | 1016.7 |
| 20260507022725 | 45 | 320 | 1.0 | 1.0 | 0.00 | 0.00 | 0.00 | 93 | 1016.7 |
| 20260507022224 | 45 | 268 | 1.0 | 1.0 | 0.00 | 0.00 | 0.00 | 93 | 1016.7 |
| 20260507021721 | 45 | 317 | 0.0 | 1.0 | 0.00 | 0.00 | 0.00 | 93 | 1016.7 |
| 20260507021219 | 45 | 334 | 0.0 | 0.0 | 0.00 | 0.00 | 0.00 | 93 | 1016.7 |
| 20260507020716 | 45 | 333 | 0.0 | 1.0 | 0.00 | 0.00 | 0.00 | 93 | 1016.7 |
| 20260507020213 | 45 | 345 | 1.0 | 1.0 | 0.00 | 0.00 | 0.00 | 93 | 1016.4 |
| 20260507015711 | 45 | 0 | 1.0 | 1.0 | 0.00 | 0.00 | 0.00 | 93 | 1016.4 |
| 20260507014706 | 45 | 297 | 1.0 | 1.0 | 0.00 | 0.00 | 0.00 | 93 | 1016.4 |
| 20260507014203 | 45 | 282 | 1.0 | 1.0 | 0.00 | 0.00 | 0.00 | 93 | 1016.4 |
| 20260507013701 | 45 | 0 | 1.0 | 1.0 | 0.00 | 0.00 | 0.00 | 93 | 1016.4 |
| 20260507013159 | 45 | 16 | 1.0 | 1.0 | 0.00 | 0.00 | 0.00 | 93 | 1016.4 |
| 20260507012656 | 45 | 354 | 0.0 | 0.0 | 0.00 | 0.00 | 0.00 | 93 | 1016.4 |
| 20260507012154 | 45 | 349 | 0.0 | 0.0 | 0.00 | 0.00 | 0.00 | 93 | 1016.4 |
| 20260507011651 | 45 | 344 | 0.0 | 1.0 | 0.00 | 0.00 | 0.00 | 92 | 1016.4 |
| 20260507011148 | 45 | 354 | 1.0 | 1.0 | 0.00 | 0.00 | 0.00 | 93 | 1016.4 |
| 20260507010646 | 45 | 351 | 0.0 | 1.0 | 0.00 | 0.00 | 0.00 | 92 | 1016.4 |
| 20260507010143 | 45 | 319 | 1.0 | 1.0 | 0.00 | 0.00 | 0.00 | 92 | 1016.4 |
| 20260507005641 | 45 | 325 | 1.0 | 1.0 | 0.00 | 0.00 | 0.00 | 92 | 1016.4 |
| 20260507005138 | 45 | 341 | 0.0 | 0.0 | 0.00 | 0.00 | 0.00 | 91 | 1016.4 |
| 20260507004636 | 45 | 6 | 0.0 | 0.0 | 0.00 | 0.00 | 0.00 | 90 | 1016.4 |
| 20260507004134 | 46 | 28 | 0.0 | 0.0 | 0.00 | 0.00 | 0.00 | 90 | 1016.4 |
| 20260507003631 | 46 | 4 | 1.0 | 1.0 | 0.00 | 0.00 | 0.00 | 91 | 1016.4 |
| 20260507003129 | 45 | 345 | 1.0 | 1.0 | 0.00 | 0.00 | 0.00 | 91 | 1016.4 |
| 20260507002626 | 45 | 315 | 1.0 | 1.0 | 0.00 | 0.00 | 0.00 | 91 | 1016.4 |
| 20260507002124 | 45 | 290 | 1.0 | 1.0 | 0.00 | 0.00 | 0.00 | 91 | 1016.4 |
| 20260507001622 | 46 | 315 | 1.0 | 1.0 | 0.00 | 0.00 | 0.00 | 91 | 1016.4 |
| 20260507001120 | 46 | 284 | 1.0 | 1.0 | 0.00 | 0.00 | 0.00 | 90 | 1016.4 |
| 20260507000618 | 46 | 317 | 1.0 | 1.0 | 0.00 | 0.00 | 0.00 | 90 | 1016.4 |
| 20260507000116 | 46 | 344 | 1.0 | 1.0 | 0.00 | 0.00 | 0.00 | 90 | 1016.4 |
| 20260506235613 | 46 | 313 | 1.0 | 1.0 | 0.00 | 0.00 | 0.00 | 89 | 1016.4 |
| 20260506235110 | 46 | 326 | 1.0 | 1.0 | 0.00 | 0.00 | 0.00 | 88 | 1016.4 |
| 20260506234608 | 46 | 338 | 1.0 | 1.0 | 0.00 | 0.00 | 0.00 | 88 | 1016.4 |
| 20260506234106 | 46 | 348 | 0.0 | 1.0 | 0.00 | 0.00 | 0.00 | 88 | 1016.4 |
| 20260506233604 | 46 | 8 | 1.0 | 2.0 | 0.00 | 0.00 | 0.00 | 88 | 1016.4 |
| 20260506233101 | 46 | 358 | 2.0 | 2.0 | 0.00 | 0.00 | 0.00 | 88 | 1016.4 |
| 20260506232559 | 46 | 5 | 1.0 | 1.0 | 0.00 | 0.00 | 0.00 | 88 | 1016.4 |
| 20260506232057 | 46 | 336 | 1.0 | 1.0 | 0.00 | 0.00 | 0.00 | 88 | 1016.4 |
| 20260506231555 | 48 | 323 | 1.0 | 1.0 | 0.00 | 0.00 | 0.00 | 88 | 1016.4 |
| 20260506231052 | 48 | 22 | 2.0 | 2.0 | 0.00 | 0.00 | 0.00 | 88 | 1016.4 |
| 20260506230550 | 48 | 351 | 1.0 | 1.0 | 0.00 | 0.00 | 0.00 | 88 | 1016.4 |
| 20260506230048 | 48 | 357 | 1.0 | 2.0 | 0.00 | 0.00 | 0.00 | 87 | 1016.4 |
| 20260506225546 | 48 | 24 | 1.0 | 1.0 | 0.00 | 0.00 | 0.00 | 87 | 1016.4 |
| 20260506225043 | 48 | 324 | 1.0 | 1.0 | 0.00 | 0.00 | 0.00 | 87 | 1016.4 |
| 20260506224037 | 48 | 64 | 2.0 | 3.0 | 0.00 | 0.00 | 0.00 | 86 | 1016.1 |
| 20260506223534 | 48 | 344 | 3.0 | 4.0 | 0.00 | 0.00 | 0.00 | 86 | 1016.1 |
| 20260506223031 | 48 | 354 | 2.0 | 2.0 | 0.00 | 0.00 | 0.00 | 86 | 1016.1 |
| 20260506222529 | 48 | 33 | 1.0 | 2.0 | 0.00 | 0.00 | 0.00 | 85 | 1016.1 |
| 20260506222027 | 50 | 32 | 1.0 | 2.0 | 0.00 | 0.00 | 0.00 | 84 | 1016.1 |
| 20260506221525 | 48 | 28 | 1.0 | 1.0 | 0.00 | 0.00 | 0.00 | 85 | 1016.1 |
| 20260506221022 | 50 | 47 | 2.0 | 4.0 | 0.00 | 0.00 | 0.00 | 85 | 1016.1 |
| 20260506220520 | 50 | 27 | 2.0 | 3.0 | 0.00 | 0.00 | 0.00 | 85 | 1016.1 |
| 20260506220017 | 50 | 39 | 2.0 | 3.0 | 0.00 | 0.00 | 0.00 | 85 | 1016.1 |
| 20260506215515 | 50 | 8 | 2.0 | 2.0 | 0.00 | 0.00 | 0.00 | 85 | 1016.1 |
| 20260506215013 | 50 | 50 | 0.0 | 1.0 | 0.00 | 0.00 | 0.00 | 85 | 1016.1 |
| 20260506214510 | 50 | 57 | 2.0 | 3.0 | 0.00 | 0.00 | 0.00 | 85 | 1015.7 |
| 20260506214007 | 50 | 52 | 2.0 | 3.0 | 0.00 | 0.00 | 0.00 | 85 | 1015.7 |
| 20260506213505 | 50 | 31 | 2.0 | 4.0 | 0.00 | 0.00 | 0.00 | 85 | 1016.1 |
| 20260506213003 | 50 | 16 | 4.0 | 5.0 | 0.00 | 0.00 | 0.00 | 85 | 1016.1 |
| 20260506212500 | 50 | 27 | 2.0 | 3.0 | 0.00 | 0.00 | 0.00 | 85 | 1015.7 |
| 20260506211957 | 50 | 29 | 4.0 | 5.0 | 0.00 | 0.00 | 0.00 | 85 | 1015.7 |
| 20260506211454 | 50 | 20 | 2.0 | 3.0 | 0.00 | 0.00 | 0.00 | 85 | 1015.7 |
| 20260506210952 | 50 | 28 | 2.0 | 3.0 | 0.00 | 0.00 | 0.00 | 85 | 1015.7 |
| 20260506210450 | 50 | 12 | 3.0 | 4.0 | 0.00 | 0.00 | 0.00 | 85 | 1015.7 |
| 20260506205948 | 50 | 5 | 2.0 | 2.0 | 0.00 | 0.00 | 0.00 | 85 | 1015.7 |
| 20260506205445 | 50 | 19 | 2.0 | 6.0 | 0.00 | 0.00 | 0.00 | 85 | 1015.7 |
| 20260506204942 | 50 | 4 | 5.0 | 5.0 | 0.00 | 0.00 | 0.00 | 85 | 1015.7 |
| 20260506204439 | 50 | 336 | 2.0 | 3.0 | 0.00 | 0.00 | 0.00 | 85 | 1015.7 |
| 20260506203937 | 50 | 11 | 3.0 | 6.0 | 0.00 | 0.00 | 0.00 | 85 | 1015.7 |
| 20260506203434 | 50 | 0 | 5.0 | 7.0 | 0.00 | 0.00 | 0.00 | 85 | 1015.7 |
| 20260506202932 | 50 | 18 | 2.0 | 3.0 | 0.00 | 0.00 | 0.00 | 85 | 1015.7 |
| 20260506202429 | 50 | 14 | 2.0 | 3.0 | 0.00 | 0.00 | 0.00 | 84 | 1015.7 |
| 20260506201927 | 50 | 8 | 4.0 | 4.0 | 0.00 | 0.00 | 0.00 | 84 | 1015.7 |
| 20260506201424 | 50 | 357 | 2.0 | 2.0 | 0.00 | 0.00 | 0.00 | 84 | 1015.7 |
| 20260506200922 | 50 | 353 | 4.0 | 4.0 | 0.00 | 0.00 | 0.00 | 84 | 1015.7 |
| 20260506200420 | 50 | 9 | 2.0 | 3.0 | 0.00 | 0.00 | 0.00 | 84 | 1015.4 |
| 20260506195917 | 50 | 28 | 1.0 | 3.0 | 0.00 | 0.00 | 0.00 | 83 | 1015.4 |
| 20260506195414 | 50 | 8 | 1.0 | 3.0 | 0.00 | 0.00 | 0.00 | 83 | 1015.4 |
| 20260506194912 | 50 | 2 | 6.0 | 6.0 | 0.00 | 0.00 | 0.00 | 83 | 1015.4 |
| 20260506194409 | 50 | 17 | 4.0 | 7.0 | 0.00 | 0.00 | 0.00 | 82 | 1015.4 |
| 20260506193907 | 50 | 47 | 7.0 | 7.0 | 0.00 | 0.00 | 0.00 | 82 | 1015.0 |
| 20260506193404 | 50 | 0 | 5.0 | 5.0 | 0.00 | 0.00 | 0.00 | 82 | 1015.0 |
| 20260506192901 | 50 | 0 | 3.0 | 5.0 | 0.00 | 0.00 | 0.00 | 82 | 1015.0 |
| 20260506192359 | 50 | 32 | 3.0 | 5.0 | 0.00 | 0.00 | 0.00 | 81 | 1015.0 |
| 20260506191856 | 50 | 353 | 4.0 | 4.0 | 0.00 | 0.00 | 0.00 | 81 | 1015.0 |
| 20260506191354 | 50 | 11 | 2.0 | 4.0 | 0.00 | 0.00 | 0.00 | 81 | 1015.0 |
| 20260506190851 | 50 | 0 | 3.0 | 4.0 | 0.00 | 0.00 | 0.00 | 80 | 1015.0 |
| 20260506190349 | 50 | 21 | 5.0 | 7.0 | 0.00 | 0.00 | 0.00 | 79 | 1015.0 |
| 20260506185847 | 50 | 8 | 3.0 | 6.0 | 0.00 | 0.00 | 0.00 | 79 | 1014.7 |
| 20260506185344 | 50 | 28 | 4.0 | 6.0 | 0.00 | 0.00 | 0.00 | 78 | 1014.7 |
| 20260506184841 | 50 | 13 | 2.0 | 3.0 | 0.00 | 0.00 | 0.00 | 77 | 1014.7 |
| 20260506184338 | 50 | 29 | 6.0 | 6.0 | 0.00 | 0.00 | 0.00 | 77 | 1014.7 |
| 20260506183836 | 50 | 26 | 2.0 | 5.0 | 0.00 | 0.00 | 0.00 | 76 | 1014.7 |
| 20260506183333 | 52 | 24 | 2.0 | 3.0 | 0.00 | 0.00 | 0.00 | 75 | 1014.7 |
| 20260506182831 | 52 | 62 | 3.0 | 6.0 | 0.00 | 0.00 | 0.00 | 75 | 1014.7 |
| 20260506182328 | 52 | 71 | 7.0 | 7.0 | 0.00 | 0.00 | 0.00 | 74 | 1014.7 |
| 20260506181826 | 52 | 61 | 4.0 | 5.0 | 0.00 | 0.00 | 0.00 | 73 | 1014.7 |
| 20260506181324 | 52 | 63 | 6.0 | 6.0 | 0.00 | 0.00 | 0.00 | 72 | 1014.7 |
| 20260506180821 | 52 | 30 | 3.0 | 4.0 | 0.00 | 0.00 | 0.00 | 71 | 1014.4 |
| 20260506180318 | 52 | 14 | 6.0 | 6.0 | 0.00 | 0.00 | 0.00 | 69 | 1014.4 |
| 20260506175816 | 52 | 46 | 4.0 | 5.0 | 0.00 | 0.00 | 0.00 | 69 | 1014.4 |
| 20260506175314 | 52 | 323 | 4.0 | 5.0 | 0.00 | 0.00 | 0.00 | 68 | 1014.4 |
| 20260506174812 | 54 | 0 | 2.0 | 2.0 | 0.00 | 0.00 | 0.00 | 69 | 1014.4 |
| 20260506174309 | 54 | 25 | 6.0 | 7.0 | 0.00 | 0.00 | 0.00 | 69 | 1014.0 |
| 20260506173807 | 54 | 5 | 3.0 | 9.0 | 0.00 | 0.00 | 0.00 | 67 | 1014.0 |
| 20260506173305 | 54 | 29 | 6.0 | 7.0 | 0.00 | 0.00 | 0.00 | 68 | 1014.0 |
| 20260506172802 | 54 | 81 | 6.0 | 9.0 | 0.00 | 0.00 | 0.00 | 66 | 1014.0 |
| 20260506172300 | 54 | 32 | 3.0 | 4.0 | 0.00 | 0.00 | 0.00 | 66 | 1014.0 |
| 20260506171757 | 54 | 90 | 2.0 | 6.0 | 0.00 | 0.00 | 0.00 | 66 | 1014.0 |
| 20260506171254 | 54 | 7 | 4.0 | 7.0 | 0.00 | 0.00 | 0.00 | 66 | 1014.0 |
| 20260506170752 | 54 | 33 | 3.0 | 3.0 | 0.00 | 0.00 | 0.00 | 66 | 1014.0 |
| 20260506170249 | 54 | 76 | 5.0 | 8.0 | 0.00 | 0.00 | 0.00 | 65 | 1014.0 |
| 20260506165747 | 54 | 63 | 3.0 | 6.0 | 0.00 | 0.00 | 0.00 | 66 | 1014.0 |
| 20260506165245 | 55 | 77 | 1.0 | 4.0 | 0.00 | 0.00 | 0.00 | 66 | 1014.0 |
| 20260506164742 | 55 | 71 | 3.0 | 6.0 | 0.00 | 0.00 | 0.00 | 66 | 1014.0 |
| 20260506164240 | 55 | 0 | 6.0 | 7.0 | 0.00 | 0.00 | 0.00 | 64 | 1013.7 |
| 20260506163737 | 55 | 38 | 11.0 | 14.0 | 0.00 | 0.00 | 0.00 | 64 | 1013.7 |
| 20260506163234 | 55 | 73 | 5.0 | 7.0 | 0.00 | 0.00 | 0.00 | 64 | 1013.7 |
| 20260506162732 | 55 | 51 | 4.0 | 6.0 | 0.00 | 0.00 | 0.00 | 66 | 1013.7 |
| 20260506162230 | 55 | 16 | 0.0 | 2.0 | 0.00 | 0.00 | 0.00 | 67 | 1013.7 |
| 20260506161225 | 54 | 354 | 9.0 | 9.0 | 0.00 | 0.00 | 0.00 | 67 | 1014.0 |
| 20260506160723 | 54 | 39 | 9.0 | 10.0 | 0.00 | 0.00 | 0.00 | 66 | 1014.0 |
| 20260506160221 | 55 | 12 | 6.0 | 7.0 | 0.00 | 0.00 | 0.00 | 66 | 1014.0 |
| 20260506155718 | 54 | 8 | 15.0 | 15.0 | 0.00 | 0.00 | 0.00 | 65 | 1014.0 |
| 20260506155216 | 55 | 55 | 6.0 | 7.0 | 0.00 | 0.00 | 0.00 | 67 | 1014.0 |
| 20260506154211 | 55 | 26 | 7.0 | 7.0 | 0.00 | 0.00 | 0.00 | 67 | 1014.0 |
| 20260506152704 | 55 | 357 | 3.0 | 6.0 | 0.00 | 0.00 | 0.00 | 67 | 1013.7 |
| 20260506152201 | 55 | 7 | 7.0 | 12.0 | 0.00 | 0.00 | 0.00 | 67 | 1013.7 |
| 20260506151659 | 55 | 27 | 6.0 | 9.0 | 0.00 | 0.00 | 0.00 | 66 | 1013.7 |
| 20260506150655 | 55 | 1 | 4.0 | 4.0 | 0.00 | 0.00 | 0.00 | 68 | 1013.7 |
| 20260506150153 | 55 | 354 | 9.0 | 9.0 | 0.00 | 0.00 | 0.00 | 68 | 1013.7 |
| 20260506145650 | 55 | 43 | 6.0 | 6.0 | 0.00 | 0.00 | 0.00 | 67 | 1013.7 |
| 20260506145148 | 55 | 41 | 6.0 | 12.0 | 0.00 | 0.00 | 0.00 | 66 | 1013.7 |
| 20260506144645 | 55 | 353 | 3.0 | 4.0 | 0.00 | 0.00 | 0.00 | 68 | 1013.7 |
| 20260506144148 | 55 | 52 | 2.0 | 4.0 | 0.00 | 0.00 | 0.00 | 72 | 1013.7 |
| 20260506143641 | 54 | 39 | 4.0 | 5.0 | 0.00 | 0.00 | 0.00 | 72 | 1013.7 |
| 20260506142133 | 54 | 92 | 2.0 | 2.0 | 0.00 | 0.00 | 0.00 | 75 | 1013.7 |
| 20260506141630 | 52 | 47 | 4.0 | 5.0 | 0.00 | 0.00 | 0.00 | 75 | 1013.7 |
| 20260506141128 | 52 | 9 | 6.0 | 6.0 | 0.00 | 0.00 | 0.00 | 78 | 1013.7 |
| 20260506140626 | 52 | 53 | 8.0 | 8.0 | 0.00 | 0.00 | 0.00 | 78 | 1013.7 |
| 20260506140124 | 54 | 44 | 4.0 | 6.0 | 0.00 | 0.00 | 0.00 | 77 | 1013.7 |
| 20260506135622 | 54 | 53 | 4.0 | 9.0 | 0.00 | 0.00 | 0.00 | 75 | 1013.7 |
| 20260506135119 | 54 | 359 | 2.0 | 4.0 | 0.00 | 0.00 | 0.00 | 75 | 1013.7 |
| 20260506134617 | 54 | 342 | 3.0 | 5.0 | 0.00 | 0.00 | 0.00 | 75 | 1013.7 |
| 20260506134114 | 52 | 0 | 3.0 | 7.0 | 0.00 | 0.00 | 0.00 | 76 | 1013.7 |
| 20260506133613 | 52 | 24 | 11.0 | 11.0 | 0.00 | 0.00 | 0.00 | 75 | 1013.7 |
| 20260506133110 | 54 | 31 | 13.0 | 14.0 | 0.00 | 0.00 | 0.00 | 73 | 1013.7 |
| 20260506132608 | 54 | 45 | 4.0 | 6.0 | 0.00 | 0.00 | 0.00 | 73 | 1013.7 |
| 20260506132105 | 54 | 39 | 5.0 | 6.0 | 0.00 | 0.00 | 0.00 | 73 | 1013.7 |
| 20260506131603 | 54 | 50 | 3.0 | 6.0 | 0.00 | 0.00 | 0.00 | 73 | 1013.7 |
| 20260506131101 | 54 | 26 | 10.0 | 12.0 | 0.00 | 0.00 | 0.00 | 73 | 1013.7 |
| 20260506130055 | 54 | 1 | 9.0 | 9.0 | 0.00 | 0.00 | 0.00 | 73 | 1013.7 |
| 20260506125553 | 52 | 7 | 10.0 | 10.0 | 0.00 | 0.00 | 0.00 | 74 | 1013.7 |
| 20260506125050 | 54 | 0 | 3.0 | 3.0 | 0.00 | 0.00 | 0.00 | 76 | 1013.7 |
| 20260506124547 | 52 | 330 | 5.0 | 7.0 | 0.00 | 0.00 | 0.00 | 77 | 1013.7 |
| 20260506123543 | 52 | 20 | 8.0 | 12.0 | 0.00 | 0.00 | 0.00 | 79 | 1013.7 |
| 20260506123040 | 50 | 22 | 6.0 | 7.0 | 0.00 | 0.00 | 0.00 | 79 | 1013.7 |
| 20260506122538 | 50 | 39 | 10.0 | 15.0 | 0.00 | 0.00 | 0.00 | 79 | 1013.7 |
| 20260506121533 | 52 | 38 | 7.0 | 7.0 | 0.00 | 0.00 | 0.00 | 81 | 1013.7 |
| 20260506121030 | 52 | 23 | 7.0 | 7.0 | 0.00 | 0.00 | 0.00 | 82 | 1013.7 |
| 20260506120528 | 52 | 22 | 2.0 | 3.0 | 0.00 | 0.00 | 0.00 | 83 | 1013.7 |
| 20260506120025 | 52 | 59 | 5.0 | 5.0 | 0.00 | 0.00 | 0.00 | 81 | 1013.4 |
| 20260506115523 | 52 | 66 | 4.0 | 6.0 | 0.00 | 0.00 | 0.00 | 79 | 1013.4 |
| 20260506115021 | 52 | 68 | 6.0 | 8.0 | 0.00 | 0.00 | 0.00 | 78 | 1013.4 |
| 20260506114519 | 52 | 61 | 4.0 | 4.0 | 0.00 | 0.00 | 0.00 | 78 | 1013.4 |
| 20260506114016 | 52 | 82 | 7.0 | 7.0 | 0.00 | 0.00 | 0.00 | 79 | 1013.4 |
| 20260506113514 | 52 | 348 | 6.0 | 6.0 | 0.00 | 0.00 | 0.00 | 78 | 1013.4 |
| 20260506113011 | 52 | 33 | 7.0 | 12.0 | 0.00 | 0.00 | 0.00 | 79 | 1013.4 |
| 20260506112509 | 52 | 14 | 5.0 | 7.0 | 0.00 | 0.00 | 0.00 | 81 | 1013.4 |
| 20260506112007 | 52 | 33 | 8.0 | 8.0 | 0.00 | 0.00 | 0.00 | 81 | 1013.4 |
| 20260506111504 | 52 | 47 | 4.0 | 5.0 | 0.00 | 0.00 | 0.00 | 81 | 1013.4 |
| 20260506111001 | 52 | 38 | 5.0 | 6.0 | 0.00 | 0.00 | 0.00 | 80 | 1013.4 |
| 20260506105956 | 52 | 47 | 6.0 | 9.0 | 0.00 | 0.00 | 0.00 | 78 | 1013.4 |
| 20260506104952 | 52 | 333 | 8.0 | 12.0 | 0.00 | 0.00 | 0.00 | 79 | 1013.4 |
| 20260506104449 | 52 | 30 | 9.0 | 9.0 | 0.00 | 0.00 | 0.00 | 78 | 1013.4 |
| 20260506103947 | 52 | 11 | 2.0 | 6.0 | 0.00 | 0.00 | 0.00 | 80 | 1013.4 |
| 20260506103445 | 52 | 66 | 6.0 | 10.0 | 0.00 | 0.00 | 0.00 | 80 | 1013.4 |
| 20260506102440 | 50 | 23 | 11.0 | 15.0 | 0.00 | 0.00 | 0.00 | 80 | 1013.4 |
| 20260506101938 | 50 | 64 | 11.0 | 11.0 | 0.00 | 0.00 | 0.00 | 80 | 1013.4 |
| 20260506101435 | 50 | 19 | 7.0 | 10.0 | 0.00 | 0.00 | 0.00 | 79 | 1013.4 |
| 20260506100932 | 52 | 30 | 4.0 | 6.0 | 0.00 | 0.00 | 0.00 | 80 | 1013.4 |
| 20260506100430 | 50 | 23 | 4.0 | 7.0 | 0.00 | 0.00 | 0.00 | 81 | 1013.4 |
| 20260506095927 | 50 | 27 | 7.0 | 7.0 | 0.00 | 0.00 | 0.00 | 81 | 1013.4 |
| 20260506095425 | 50 | 1 | 11.0 | 11.0 | 0.00 | 0.00 | 0.00 | 80 | 1013.4 |
| 20260506094922 | 50 | 42 | 6.0 | 9.0 | 0.00 | 0.00 | 0.00 | 80 | 1013.4 |
| 20260506094420 | 50 | 345 | 9.0 | 11.0 | 0.00 | 0.00 | 0.00 | 80 | 1013.4 |
| 20260506093415 | 52 | 22 | 4.0 | 6.0 | 0.00 | 0.00 | 0.00 | 80 | 1013.0 |
| 20260506092913 | 52 | 66 | 6.0 | 11.0 | 0.00 | 0.00 | 0.00 | 79 | 1013.0 |
| 20260506092410 | 52 | 17 | 5.0 | 7.0 | 0.00 | 0.00 | 0.00 | 79 | 1013.0 |
| 20260506091908 | 50 | 18 | 12.0 | 14.0 | 0.00 | 0.00 | 0.00 | 78 | 1013.0 |
| 20260506091405 | 52 | 31 | 12.0 | 16.0 | 0.00 | 0.00 | 0.00 | 78 | 1013.0 |
| 20260506090904 | 52 | 5 | 3.0 | 6.0 | 0.00 | 0.00 | 0.00 | 78 | 1013.0 |
| 20260506090401 | 52 | 304 | 2.0 | 10.0 | 0.00 | 0.00 | 0.00 | 78 | 1013.0 |
| 20260506085859 | 52 | 47 | 4.0 | 4.0 | 0.00 | 0.00 | 0.00 | 79 | 1012.7 |
| 20260506084853 | 50 | 15 | 6.0 | 9.0 | 0.00 | 0.00 | 0.00 | 79 | 1013.0 |
| 20260506083848 | 50 | 22 | 4.0 | 7.0 | 0.00 | 0.00 | 0.00 | 80 | 1012.7 |
| 20260506083346 | 50 | 80 | 6.0 | 13.0 | 0.00 | 0.00 | 0.00 | 79 | 1012.7 |
| 20260506082844 | 50 | 19 | 5.0 | 8.0 | 0.00 | 0.00 | 0.00 | 79 | 1012.7 |
| 20260506082341 | 50 | 22 | 9.0 | 11.0 | 0.00 | 0.00 | 0.00 | 80 | 1012.7 |
| 20260506081839 | 50 | 8 | 8.0 | 11.0 | 0.00 | 0.00 | 0.00 | 80 | 1012.7 |
| 20260506080834 | 50 | 51 | 6.0 | 11.0 | 0.00 | 0.00 | 0.00 | 79 | 1012.7 |
| 20260506080331 | 50 | 21 | 8.0 | 8.0 | 0.00 | 0.00 | 0.00 | 79 | 1012.3 |